�������C�����ː����j�^�v���󋵏��
Date,Time,Cs137(Bq/L),Cs134(Bq/L),�S��(Bq/L)
2019/01/19,00:00,0.29,ND,17
2019/01/19,00:10,0.27,ND,17
2019/01/19,00:20,0.27,ND,15
2019/01/19,00:30,0.28,ND,12
2019/01/19,00:40,0.30,ND,12
2019/01/19,00:50,0.30,ND,14
2019/01/19,01:00,0.29,ND,13
2019/01/19,01:10,0.29,ND,14
2019/01/19,01:20,0.29,ND,15
2019/01/19,01:30,0.27,ND,17
2019/01/19,01:40,0.28,ND,17
2019/01/19,01:50,0.27,ND,17
2019/01/19,02:00,0.22,ND,18
2019/01/19,02:10,0.23,ND,18
2019/01/19,02:20,0.25,ND,16
2019/01/19,02:30,0.26,ND,19
2019/01/19,02:40,0.26,ND,21
2019/01/19,02:50,0.25,ND,19
2019/01/19,03:00,0.26,ND,18
2019/01/19,03:10,0.25,ND,17
2019/01/19,03:20,0.29,ND,15
2019/01/19,03:30,0.29,ND,9.2
2019/01/19,03:40,0.30,ND,ND
2019/01/19,03:50,0.30,ND,ND
2019/01/19,04:00,0.30,ND,9.3
2019/01/19,04:10,0.30,ND,11
2019/01/19,04:20,0.21,ND,14
2019/01/19,04:30,0.28,ND,16
2019/01/19,04:40,0.29,ND,15
2019/01/19,04:50,0.28,ND,16
2019/01/19,05:00,0.29,ND,16
2019/01/19,05:10,0.29,ND,14
2019/01/19,05:20,0.29,ND,12
2019/01/19,05:30,0.28,ND,11
2019/01/19,05:40,0.27,ND,9.3
2019/01/19,05:50,0.27,ND,8.8
2019/01/19,06:00,0.27,ND,ND
2019/01/19,06:10,0.20,ND,10
2019/01/19,06:20,0.27,ND,12
2019/01/19,06:30,0.24,ND,14
2019/01/19,06:40,0.31,ND,16
2019/01/19,06:50,0.29,ND,18
2019/01/19,07:00,0.28,ND,20
2019/01/19,07:10,0.27,ND,18
2019/01/19,07:20,0.27,ND,16
2019/01/19,07:30,0.24,ND,14
2019/01/19,07:40,0.25,ND,16
2019/01/19,07:50,0.27,ND,14
2019/01/19,08:00,0.28,ND,12
2019/01/19,08:10,0.29,ND,11
2019/01/19,08:20,0.30,ND,11
2019/01/19,08:30,0.30,ND,12
2019/01/19,08:40,0.28,ND,10
2019/01/19,08:50,0.26,ND,13
2019/01/19,09:00,0.25,ND,12
2019/01/19,09:10,0.24,ND,15
2019/01/19,09:20,0.24,ND,14
2019/01/19,09:30,0.25,ND,11
2019/01/19,09:40,0.26,ND,12
2019/01/19,09:50,0.27,ND,11
2019/01/19,10:00,0.27,ND,13
2019/01/19,10:10,0.29,ND,10
2019/01/19,10:20,0.28,ND,12
2019/01/19,10:30,0.28,ND,14
2019/01/19,10:40,0.27,ND,13
2019/01/19,10:50,0.28,ND,15
2019/01/19,11:00,0.29,ND,15
2019/01/19,11:10,0.29,ND,18
2019/01/19,11:20,0.30,ND,17
2019/01/19,11:30,0.24,ND,17
2019/01/19,11:40,0.28,ND,16
2019/01/19,11:50,0.27,ND,15
2019/01/19,12:00,0.28,ND,13
2019/01/19,12:10,0.27,ND,12
2019/01/19,12:20,0.28,ND,13
2019/01/19,12:30,0.28,ND,15
2019/01/19,12:40,0.28,ND,14
2019/01/19,12:50,0.30,ND,15
2019/01/19,13:00,0.28,ND,18
2019/01/19,13:10,0.28,ND,18
2019/01/19,13:20,0.27,ND,16
2019/01/19,13:30,0.26,ND,17
2019/01/19,13:40,0.26,ND,19
2019/01/19,13:50,0.24,ND,19
2019/01/19,14:00,0.25,ND,16
2019/01/19,14:10,0.25,ND,18
2019/01/19,14:20,0.24,ND,18
2019/01/19,14:30,0.25,ND,18
2019/01/19,14:40,0.24,ND,16
2019/01/19,14:50,0.24,ND,14
2019/01/19,15:00,0.26,ND,15
2019/01/19,15:10,0.26,ND,14
2019/01/19,15:20,0.26,ND,15
2019/01/19,15:30,0.26,ND,16
2019/01/19,15:40,0.27,ND,15
2019/01/19,15:50,0.26,ND,15
2019/01/19,16:00,0.24,ND,15
2019/01/19,16:10,0.25,ND,16
2019/01/19,16:20,0.24,ND,16
2019/01/19,16:30,0.23,ND,16
2019/01/19,16:40,0.23,ND,17
2019/01/19,16:50,0.24,ND,18
2019/01/19,17:00,0.25,ND,19
2019/01/19,17:10,0.25,ND,14
2019/01/19,17:20,0.26,ND,14
2019/01/19,17:30,0.20,ND,14
2019/01/19,17:40,0.27,ND,14
2019/01/19,17:50,0.19,ND,13
2019/01/19,18:00,0.24,ND,13
2019/01/19,18:10,0.18,ND,16
2019/01/19,18:20,0.27,ND,15
2019/01/19,18:30,0.28,ND,12
2019/01/19,18:40,0.28,ND,14
2019/01/19,18:50,0.26,ND,14
2019/01/19,19:00,0.29,ND,13
2019/01/19,19:10,0.29,ND,14
2019/01/19,19:20,0.28,ND,16
2019/01/19,19:30,0.26,ND,15
2019/01/19,19:40,0.26,ND,12
2019/01/19,19:50,0.27,ND,14
2019/01/19,20:00,0.25,ND,12
2019/01/19,20:10,0.24,ND,12
2019/01/19,20:20,0.24,ND,14
2019/01/19,20:30,0.25,ND,16
2019/01/19,20:40,0.27,ND,19
2019/01/19,20:50,0.27,ND,18
2019/01/19,21:00,0.27,ND,22
2019/01/19,21:10,0.27,ND,22
2019/01/19,21:20,0.27,ND,20
2019/01/19,21:30,0.25,ND,19
2019/01/19,21:40,0.23,ND,16
2019/01/19,21:50,0.24,ND,16
2019/01/19,22:00,0.26,ND,14
2019/01/19,22:10,0.25,ND,12
2019/01/19,22:20,0.26,ND,10
2019/01/19,22:30,0.27,ND,11
2019/01/19,22:40,0.28,ND,13
2019/01/19,22:50,0.26,ND,9.5
2019/01/19,23:00,0.25,ND,10
2019/01/19,23:10,0.26,ND,10
2019/01/19,23:20,0.26,ND,13
2019/01/19,23:30,0.26,ND,13
2019/01/19,23:40,0.25,ND,14
2019/01/19,23:50,0.26,ND,18
